Location: Dompnac
(44.5644°N, 4.1026°E)
Time: 05:47:17
(UTC+00:00)

NOSS 2-2 (E) - Pass Details

Date: 22 January 2021
Orbit: 462 x 1744 km, 63.3° (Epoch: 05 March)

Event Time Altitude Azimuth Distance (km) Brightness Sun altitude
Rises 20:28:38 0° 324° (NW) 3,161 7.7 -40.6°
Reaches altitude 10° 20:30:44 10° 328° (NNW) 2,382 6.9 -40.9°
Enters shadow 20:31:04 12° 328° (NNW) 2,262 6.8 -41.0°
